Regional Weather Roundup
Issued by NWS

Home | Current Version | Previous Version | Text Only | Print | Product List | Glossary On
Versions: 1 2 3 4 5 6 7 8 9 10 11 12 13 14 15 16 17 18 19 20 21 22 23 24 25 26 27 28 29 30 31 32 33 34 35 36 37 38 39 40 41 42 43 44 45 46 47 48 49 50
549
ASUS44 KLIX 202005
RWRLA
LOUISIANA WEATHER ROUNDUP
NATIONAL WEATHER SERVICE NEW ORLEANS LA
200 PM CST THU NOV 20 2014

NOTE: "FAIR" INDICATES FEW OR NO CLOUDS BELOW 12,000 FEET WITH NO
      SIGNIFICANT WEATHER AND/OR OBSTRUCTIONS TO VISIBILITY.
      SKY/WX - SKY CONDITION AND SIGNIFICANT WEATHER.
      TMP - AIR TEMPERATURE.    DP   - DEWPOINT TEMPERATURE.
      RH  - RELATIVE HUMIDITY.  PRES - PRESSURE.
      HX  - HEAT INDEX.         WCI  - WIND CHILL INDEX.

*  THESE STATIONS ARE NOT NWS OR FAA STATIONS AND ARE NOT UNDER
   NWS QUALITY CONTROL.

LAZ040-048-061>063-065-066-069-202100-
SOUTHEAST LOUISIANA

CITY           SKY/WX    TMP DP  RH WIND       PRES   REMARKS
N.O. AUDUBON     N/A     67  47  49 MISG        N/A
N.O. INTL ARPT MOSUNNY   69  44  40 S7        30.20F
N.O. LAKEFRONT PTSUNNY   65  47  52 E5        30.21F
N.O. DOWNTOWN* FAIR      70  45  40 S12       30.21S
SLIDELL        SUNNY     68  45  43 S7        30.20F
BATON ROUGE    CLOUDY    69  45  41 VRB5      30.18F
BOOTHVILLE     SUNNY     66  45  46 E7        30.23F
BELLE CHASSE   MOSUNNY   67  44  43 S10       30.21F
BOGALUSA*        N/A     68  45  43 W3        30.21S
NEW ROADS*     MOCLDY    71  46  40 SE7       30.18S
GONZALES*      FAIR      70  46  41 CALM      30.18F
HAMMOND*       PTSUNNY   68  41  37 SW5       30.21S
HOUMA*         MOSUNNY   68  46  45 SE10      30.20F
PORT FOURCHON* CLEAR     66  46  48 SE10      30.25S

$$

LAZ041-044-053-054-202100-
SOUTHWEST LOUISIANA

CITY           SKY/WX    TMP DP  RH WIND       PRES   REMARKS
LAKE CHARLES   SUNNY     72  47  40 S14G21    30.14F
LAFAYETTE      SUNNY     70  48  45 S12       30.18F
PATTERSON      CLOUDY    68  45  42 CALM      30.21F
SALT POINT       N/A     69  51  52 VRB7      30.18F
NEW IBERIA     MOSUNNY   71  50  47 S12       30.19F
CHENAULT AIRPK NOT AVBL

$$

LAZ027-028-202100-
CENTRAL LOUISIANA

CITY           SKY/WX    TMP DP  RH WIND       PRES   REMARKS
FORT POLK      PTSUNNY   69  51  53 S10       30.12F
ALEXANDRIA INT PTSUNNY   71  51  49 S8        30.13F
ALEXANDRIA     CLOUDY    71  50  47 S3        30.15F

$$

LAZ001-002-202100-
NORTHWEST LOUISIANA

CITY           SKY/WX    TMP DP  RH WIND       PRES   REMARKS
SHREVEPORT     LGT RAIN  66  52  60 SW5       30.11F
BARKSDALE AFB  CLOUDY    67  51  56 S6        30.11F
DTN SHREVEPORT CLOUDY    66  51  58 SE6       30.11F

$$

LAZ014-016-202100-
NORTHEAST LOUISIANA

CITY           SKY/WX    TMP DP  RH WIND       PRES   REMARKS
MONROE         CLOUDY    64  51  62 E8        30.17F
TALLULAH       PTSUNNY   65  51  60 NE6       30.18F

$$




USA.gov is the U.S. government's official web portal to all federal, state and local government web resources and services.